This demonstration page uses our WeatherBlox Daily Observations layout. Learn more.

Left ArrowRight Arrow

Hourly Observations for May 19, 2020

Temp ( °F °C ) Dew Point ( °F °C ) Humidity (%) Winds ( mph kmh ) Pressure ( in mb ) Visibility ( mi km ) Precip ( " mm )
12:15 am 00:15 Clear 54 12 47 8.5 79 79 E 14 22 30.01 1016 10 16.0934 0 0
12:35 am 00:35 Clear 52 11.3 47 8.3 82 82 E 9 15 30.01 1016 10 16.0934 0 0
12:55 am 00:55 Clear 52 11 47 8.2 83 83 E 12 19 30.01 1016 10 16.0934 0 0
1:15 am 01:15 Clear 51 10.5 47 8.1 85 85 E 10 17 30.01 1016 10 16.0934 0 0
1:35 am 01:35 Clear 50 10.2 46 8 86 86 E 8 13 30.01 1016 10 16.0934 0 0
1:55 am 01:55 Clear 50 9.8 46 7.9 88 88 E 7 11 30.01 1016 10 16.0934 0 0
2:15 am 02:15 Clear 49 9.3 46 7.7 90 90 E 7 11 30.02 1017 10 16.0934 0 0
2:35 am 02:35 Clear 49 9.2 46 7.6 90 90 E 7 11 30.02 1017 10 16.0934 0 0
2:55 am 02:55 Clear 47 8.5 45 7.2 92 92 E 6 9 30.02 1016 10 16.0934 0 0
3:15 am 03:15 Clear 47 8.2 45 7 92 92 E 5 7 30.02 1017 7 11.26538 0 0
3:35 am 03:35 Clear 46 7.7 44 6.7 93 93 E 6 9 30.01 1016 7 11.26538 0 0
3:55 am 03:55 Clear 47 8.2 45 7.3 94 94 E 7 11 30.01 1016 7 11.26538 0 0
4:15 am 04:15 Clear 46 7.7 44 6.7 93 93 E 5 7 30.02 1017 7 11.26538 0 0
4:35 am 04:35 Clear with Mist and Fog 45 7.3 44 6.5 95 95 Calm 30.03 1017 5 8.0467 0 0
4:55 am 04:55 Clear with Mist and Fog 45 7.1 43 6.3 95 95 Calm 30.03 1017 5 8.0467 0 0
5:15 am 05:15 Clear with Mist and Fog 45 7 43 6.3 95 95 Calm 30.03 1017 3 4.82802 0 0
5:35 am 05:35 Clear with Mist and Fog 44 6.5 43 6 97 97 ENE 3 6 30.04 1017 4 6.43736 0 0
5:55 am 05:55 Clear with Mist and Fog 43 6.2 42 5.6 96 96 E 5 7 30.04 1017 3 4.82802 0 0
6:15 am 06:15 Clear with Mist and Fog 45 7 44 6.5 97 97 E 3 6 30.04 1017 3 4.82802 0 0
6:35 am 06:35 Sunny with Mist and Fog 44 6.5 43 6 97 97 Calm 30.04 1017 2 3.21868 0 0
6:55 am 06:55 Mostly Cloudy with Mist and Fog 45 7 44 6.5 97 97 Calm 30.05 1018 1.25 2.011675 0 0
7:15 am 07:15 Mostly Cloudy with Mist and Fog 46 7.6 45 7.1 97 97 Calm 30.04 1017 1.75 2.816345 0 0
7:35 am 07:35 Partly Cloudy with Mist and Fog 48 8.8 47 8.4 97 97 Calm 30.04 1017 2 3.21868 0 0
7:55 am 07:55 Sunny with Mist and Fog 50 9.9 49 9.2 95 95 Calm 30.04 1017 5 8.0467 0 0
8:15 am 08:15 Sunny 51 10.8 48 9.1 89 89 E 6 9 30.03 1017 7 11.26538 0 0
8:35 am 08:35 Sunny 53 11.6 49 9.2 85 85 E 3 6 30.03 1017 10 16.0934 0 0
8:55 am 08:55 Partly Cloudy 54 12 49 9.3 84 84 E 8 13 30.03 1017 10 16.0934 0 0
9:15 am 09:15 Cloudy 54 12.1 49 9.4 84 84 E 6 9 30.02 1017 10 16.0934 0 0
9:35 am 09:35 Cloudy 54 12 48 9.1 83 83 ESE 5 7 30.04 1017 10 16.0934 0 0
9:55 am 09:55 Cloudy 54 12.3 49 9.3 82 82 E 3 6 30.03 1017 10 16.0934 0 0
10:15 am 10:15 Cloudy 54 12.4 48 9.1 80 80 Calm 30.02 1017 10 16.0934 0 0
10:35 am 10:35 Cloudy 55 12.6 49 9.3 80 80 Calm 30.02 1017 10 16.0934 0 0
10:55 am 10:55 Cloudy 56 13.5 50 9.9 79 79 ENE 5 7 30 1016 10 16.0934 0 0
11:15 am 11:15 Cloudy 57 13.8 50 9.8 77 77 SSE 5 7 30.01 1016 10 16.0934 0 0
11:35 am 11:35 Cloudy 58 14.5 50 9.9 74 74 Calm 30 1016 10 16.0934 0 0
11:55 am 11:55 Mostly Cloudy 59 15.2 51 10.4 73 73 ESE 5 7 29.99 1015 10 16.0934 0 0
12:15 pm 12:15 Partly Cloudy 60 15.7 51 10.3 70 70 E 3 6 29.97 1015 10 16.0934 0 0
12:35 pm 12:35 Partly Cloudy 61 16.3 51 10.6 69 69 ENE 7 11 29.96 1014 10 16.0934 0 0
12:55 pm 12:55 Sunny 63 17.1 51 10.7 66 66 ENE 5 7 29.94 1014 10 16.0934 0 0
1:15 pm 13:15 Sunny 65 18.1 51 10.7 62 62 ESE 7 11 29.93 1014 10 16.0934 0 0
1:35 pm 13:35 Sunny 66 18.9 51 10.8 60 60 ESE 3 6 29.93 1013 10 16.0934 0 0
1:55 pm 13:55 Sunny 67 19.2 51 10.8 58 58 ESE 5 7 29.91 1013 10 16.0934 0 0
2:15 pm 14:15 Sunny 68 19.8 51 10.5 55 55 SSW 3 6 29.91 1013 10 16.0934 0 0
2:35 pm 14:35 Sunny 69 20.6 51 10.4 52 52 SE 7 11 29.88 1012 10 16.0934 0 0
2:55 pm 14:55 Sunny 70 21.3 51 10.4 50 50 SE 7 11 29.88 1012 10 16.0934 0 0
3:15 pm 15:15 Sunny 72 22.1 51 10.7 49 49 E 7 11 29.86 1011 10 16.0934 0 0
3:35 pm 15:35 Sunny 72 22.3 50 10 46 46 E 9 15 29.85 1011 10 16.0934 0 0
3:55 pm 15:55 Sunny 73 22.7 51 10.3 46 46 SE 8 13 29.84 1010 10 16.0934 0 0
4:15 pm 16:15 Sunny 73 23 50 10.1 44 44 SSE 8 13 29.82 1010 10 16.0934 0 0
4:35 pm 16:35 Sunny 74 23.4 50 10.1 43 43 E 8 13 29.82 1010 10 16.0934 0 0
4:55 pm 16:55 Sunny 74 23.5 49 9.5 41 41 SE 7 11 29.82 1010 10 16.0934 0 0
5:15 pm 17:15 Sunny 74 23.6 49 9.4 41 41 E 9 15 29.82 1010 10 16.0934 0 0
5:35 pm 17:35 Sunny 74 23.6 50 10.1 43 43 ESE 12 19 29.81 1009 10 16.0934 0 0
5:55 pm 17:55 Sunny 75 23.9 49 9.6 40 40 SE 7 11 29.81 1009 10 16.0934 0 0
6:15 pm 18:15 Sunny 75 23.8 49 9.7 41 41 ESE 9 15 29.81 1009 10 16.0934 0 0
6:35 pm 18:35 Sunny 74 23.5 50 10.1 43 43 ESE 13 20 29.81 1009 10 16.0934 0 0
6:55 pm 18:55 Sunny 74 23.2 51 10.6 45 45 ESE 15 24 29.81 1010 10 16.0934 0 0
7:15 pm 19:15 Sunny 73 22.9 51 10.4 45 45 ESE 15 24 29.81 1010 10 16.0934 0 0
7:35 pm 19:35 Sunny 72 22.2 51 10.5 48 48 ESE 14 22 29.81 1009 10 16.0934 0 0
7:55 pm 19:55 Sunny 71 21.6 50 10.2 48 48 ESE 14 22 29.82 1010 10 16.0934 0 0
8:15 pm 20:15 Sunny 69 20.7 51 10.4 52 52 ESE 13 20 29.83 1010 10 16.0934 0 0
8:35 pm 20:35 Sunny 68 20 51 10.3 54 54 ESE 10 17 29.85 1011 10 16.0934 0 0
8:55 pm 20:55 Clear 66 18.7 51 10.5 59 59 ESE 12 19 29.86 1011 10 16.0934 0 0
9:15 pm 21:15 Clear 64 17.5 51 10.3 63 63 ESE 13 20 29.87 1011 10 16.0934 0 0
9:35 pm 21:35 Clear 63 17 51 10.3 65 65 ESE 10 17 29.88 1012 10 16.0934 0 0
9:55 pm 21:55 Clear 61 16.2 51 10.3 68 68 ESE 10 17 29.9 1012 10 16.0934 0 0
10:15 pm 22:15 Clear 60 15.7 51 10.3 70 70 ESE 8 13 29.92 1013 10 16.0934 0 0
10:35 pm 22:35 Clear 59 14.8 50 10 73 73 SE 7 11 29.93 1014 10 16.0934 0 0
10:55 pm 22:55 Clear 56 13.4 50 9.8 79 79 ESE 7 11 29.94 1014 10 16.0934 0 0
11:15 pm 23:15 Clear 56 13.5 50 9.8 79 79 SE 5 7 29.95 1014 10 16.0934 0 0
11:35 pm 23:35 Clear 56 13.5 49 9.6 77 77 SE 3 6 29.95 1014 10 16.0934 0 0
11:55 pm 23:55 Clear 56 13.5 50 9.8 79 79 Calm 29.96 1015 10 16.0934 0 0

Powered by AerisWeather